Location: Antin
(43.3330°N, 0.2804°E)
Time: 17:59:53
(UTC+00:00)

SL-24 DEB - Visible Passes

Search period start: 11 August 2022 00:00
Search period end: 21 August 2022 00:00
Orbit: 667 x 693 km, 98.1° (Epoch: 10 August)

Date Brightness Start Highest point End Pass type
(mag) Time Alt. Az. Time Alt. Az. Time Alt. Az.
11 Aug 5.3 19:32:23 10° NNE 19:37:01 89° WNW 19:41:36 10° SSW visible
11 Aug 8.7 21:12:23 10° NW 21:13:34 11° WNW 21:14:45 10° WNW visible
12 Aug 6.8 20:08:25 10° N 20:12:42 39° WNW 20:16:56 10° SW visible
13 Aug 8.2 20:45:02 10° NNW 20:48:12 19° WNW 20:51:21 10° WSW visible
14 Aug 5.6 19:42:30 10° N 19:47:06 71° WNW 19:51:39 10° SSW visible
15 Aug 7.2 20:18:40 10° N 20:22:43 31° WNW 20:26:45 10° SW visible
16 Aug 8.3 20:55:33 10° NNW 20:58:10 15° WNW 21:00:46 10° W visible
17 Aug 6.0 19:52:38 10° N 19:57:09 56° WNW 20:01:36 10° SSW visible
18 Aug 7.6 20:28:57 10° NNW 20:32:43 25° WNW 20:36:27 10° WSW visible
19 Aug 5.2 19:26:50 10° NNE 19:31:27 81° ESE 19:36:02 10° S visible
19 Aug 8.5 21:06:18 10° NW 21:08:06 12° WNW 21:09:53 10° W visible
20 Aug 6.5 20:02:48 10° N 20:07:10 44° WNW 20:11:29 10° SW visible
